Regional Weather Roundup
Issued by NWS

Home | Current Version | Previous Version | Text Only | Print | Product List | Glossary Off
Versions: 1 2 3 4 5 6 7 8 9 10 11 12 13 14 15 16 17 18 19 20 21 22 23 24 25 26 27 28 29 30 31 32 33 34 35 36 37 38 39 40 41 42 43 44 45 46 47 48 49 50

000
ASUS43 KLSX 251859
RWRMO

WEATHER SUMMARY FOR MISSOURI
NATIONAL WEATHER SERVICE SPRINGFIELD MO
200 PM CDT MON MAY 25 2015

NOTE: "FAIR" INDICATES FEW OR NO CLOUDS BELOW 12,000 FEET WITH NO
       SIGNIFICANT WEATHER AND/OR OBSTRUCTIONS TO VISIBILITY.
       CURRENT SKY AND/OR WEATHER CONDITIONS ARE NOT AVAILABLE FOR
       CHILLICOTHE AND FARMINGTON.

MOZ001>031-035>038-043-044-053-054-252000-
...NORTHERN AND WESTERN MISSOURI...

CITY           SKY/WX    TMP DP  RH WIND       PRES   REMARKS
KANSAS CTY INT CLOUDY    74  65  73 S18       29.90R
KANSAS C DTWN  CLOUDY    77  64  64 S16       29.89S
LEE`S SUMMIT   PTSUNNY   76  65  68 S14G28    29.92S
ST JOSEPH      PTSUNNY   78  66  66 S18G26    29.86S
KIRKSVILLE     SUNNY     75  65  70 S16G24    29.93S

$$
MOZ066>068-077>081-088>096-101>105-252000-
...SOUTHWEST MISSOURI...

CITY           SKY/WX    TMP DP  RH WIND       PRES   REMARKS
SPRINGFIELD    MOSUNNY   79  65  62 S12       29.96S
JOPLIN         PTSUNNY   80  67  64 S15G25    29.94F

$$
MOZ032>034-039>042-045>050-055>058-069>072-252000-
...CENTRAL MISSOURI...

CITY           SKY/WX    TMP DP  RH WIND       PRES   REMARKS
COLUMBIA       MOSUNNY   77  66  68 S16       29.95F
JEFFERSON CITY MOSUNNY   77  65  66 VRB3      29.95S
ROLLA          MOSUNNY   78  65  63 S12       29.96F
SEDALIA        PTSUNNY   78  67  68 S13G21    29.95S
OSAGE BEACH    PTSUNNY   81  64  57 SW12      29.96S

$$
MOZ051-052-059>065-252000-
...EAST CENTRAL MISSOURI...

CITY           SKY/WX    TMP DP  RH WIND       PRES   REMARKS
ST LOUIS INTL  PTSUNNY   84  62  47 S8        29.98F
SPIRIT OF STL  PTSUNNY   83  64  52 S8        29.96F
ST CHARLES     MOSUNNY   82  63  52 S9        29.96F

$$
MOZ072>076-082>087-097>100-106>115-252000-
...SOUTH CENTRAL AND SOUTHEAST MISSOURI...

CITY           SKY/WX    TMP DP  RH WIND       PRES   REMARKS
CAPE GIRARDEAU CLOUDY    76  69  79 S9        30.05S
FARMINGTON     PTSUNNY   79  66  65 S12       30.06S
POPLAR BLUFF   CLOUDY    77  68  73 S8        30.02F
WEST PLAINS    CLOUDY    78  65  63 S9        30.03S

$$


USA.gov is the U.S. government's official web portal to all federal, state and local government web resources and services.